| time (UTC) | temp F | wind direction | speed knots | gust knots | rain 1hr in | rain 24hr in | rain mn in | humidity % | barometer mb |
| 20260507141541 | 50 | 332 | 4.3 | 11.3 | 0.00 | 0.20 | 0.01 | 64 | 1008.6 |
| 20260507140031 | 49 | 306 | 4.3 | 13.0 | 0.00 | 0.20 | 0.01 | 71 | 1008.5 |
| 20260507134547 | 48 | 336 | 7.0 | 13.0 | 0.00 | 0.20 | 0.01 | 73 | 1008.4 |
| 20260507133017 | 48 | 281 | 3.5 | 9.6 | 0.00 | 0.20 | 0.01 | 77 | 1008.4 |
| 20260507131614 | 48 | 309 | 2.6 | 9.6 | 0.00 | 0.20 | 0.01 | 78 | 1008.5 |
| 20260507130011 | 47 | 253 | 3.5 | 11.3 | 0.00 | 0.20 | 0.01 | 82 | 1008.5 |
| 20260507124551 | 47 | 265 | 4.3 | 12.2 | 0.00 | 0.20 | 0.01 | 82 | 1008.6 |
| 20260507123015 | 46 | 238 | 2.6 | 11.3 | 0.00 | 0.20 | 0.01 | 84 | 1008.5 |
| 20260507121545 | 46 | 269 | 2.6 | 9.6 | 0.00 | 0.20 | 0.01 | 85 | 1008.4 |
| 20260507120030 | 45 | 348 | 3.5 | 13.9 | 0.00 | 0.20 | 0.01 | 86 | 1008.5 |
| 20260507114557 | 44 | 275 | 3.5 | 11.3 | 0.00 | 0.20 | 0.01 | 87 | 1008.5 |
| 20260507113057 | 44 | 277 | 1.7 | 7.0 | 0.00 | 0.20 | 0.01 | 91 | 1008.3 |
| 20260507111559 | 43 | 235 | 0.9 | 6.1 | 0.00 | 0.20 | 0.01 | 91 | 1008.3 |
| 20260507110021 | 43 | 295 | 1.7 | 7.8 | 0.00 | 0.20 | 0.01 | 91 | 1008.3 |
| 20260507104602 | 43 | 259 | 0.9 | 7.0 | 0.00 | 0.20 | 0.01 | 91 | 1008.1 |
| 20260507103023 | 43 | 317 | 2.6 | 5.2 | 0.00 | 0.20 | 0.01 | 91 | 1007.8 |
| 20260507101556 | 43 | 315 | 1.7 | 7.0 | 0.00 | 0.20 | 0.01 | 91 | 1007.7 |
| 20260507100037 | 43 | 275 | 4.3 | 8.7 | 0.00 | 0.20 | 0.01 | 91 | 1007.6 |
| 20260507094606 | 43 | 282 | 1.7 | 3.5 | 0.00 | 0.20 | 0.01 | 91 | 1007.7 |
| 20260507093022 | 43 | 342 | 1.7 | 5.2 | 0.00 | 0.20 | 0.01 | 91 | 1007.9 |
| 20260507091551 | 43 | 292 | 1.7 | 5.2 | 0.00 | 0.20 | 0.01 | 91 | 1007.8 |
| 20260507090024 | 43 | 336 | 2.6 | 7.8 | 0.00 | 0.20 | 0.01 | 91 | 1007.7 |
| 20260507084502 | 43 | 294 | 1.7 | 5.2 | 0.00 | 0.20 | 0.01 | 91 | 1008.2 |
| 20260507083026 | 43 | 281 | 1.7 | 7.8 | 0.01 | 0.20 | 0.01 | 91 | 1008.0 |
| 20260507081557 | 44 | 293 | 1.7 | 7.0 | 0.01 | 0.20 | 0.01 | 91 | 1008.1 |
| 20260507080030 | 44 | 263 | 2.6 | 6.1 | 0.01 | 0.20 | 0.01 | 91 | 1007.8 |
| 20260507074503 | 44 | 333 | 0.0 | 4.3 | 0.01 | 0.20 | 0.01 | 90 | 1007.3 |
| 20260507073040 | 44 | 284 | 1.7 | 10.4 | 0.00 | 0.19 | 0.00 | 90 | 1007.6 |
| 20260507071521 | 44 | 283 | 1.7 | 6.1 | 0.00 | 0.19 | 0.00 | 89 | 1007.7 |
| 20260507070005 | 44 | 296 | 3.5 | 8.7 | 0.00 | 0.19 | 0.00 | 89 | 1007.1 |
| 20260507064549 | 44 | 329 | 3.5 | 8.7 | 0.00 | 0.19 | 0.00 | 89 | 1007.2 |
| 20260507063032 | 44 | 287 | 3.5 | 10.4 | 0.00 | 0.19 | 0.00 | 89 | 1007.0 |
| 20260507061517 | 45 | 290 | 3.5 | 8.7 | 0.00 | 0.19 | 0.00 | 89 | 1007.0 |
| 20260507060003 | 45 | 270 | 2.6 | 7.0 | 0.00 | 0.19 | 0.00 | 91 | 1007.0 |
| 20260507054543 | 45 | 280 | 4.3 | 7.8 | 0.00 | 0.19 | 0.00 | 91 | 1007.3 |
| 20260507053029 | 45 | 279 | 0.9 | 7.8 | 0.00 | 0.19 | 0.00 | 90 | 1007.8 |
| 20260507051605 | 46 | 277 | 2.6 | 11.3 | 0.00 | 0.19 | 0.00 | 90 | 1007.6 |
| 20260507044531 | 46 | 250 | 2.6 | 6.1 | 0.00 | 0.19 | 0.00 | 90 | 1007.4 |
| 20260507043004 | 47 | 275 | 2.6 | 7.0 | 0.00 | 0.19 | 0.00 | 90 | 1007.2 |
| 20260507041536 | 47 | 281 | 1.7 | 12.2 | 0.00 | 0.19 | 0.00 | 89 | 1007.1 |
| 20260507040016 | 48 | 254 | 5.2 | 11.3 | 0.00 | 0.19 | 0.00 | 90 | 1007.3 |
| 20260507034502 | 49 | 304 | 2.6 | 11.3 | 0.00 | 0.19 | 0.19 | 91 | 1007.0 |
| 20260507033048 | 49 | 279 | 2.6 | 14.8 | 0.01 | 0.19 | 0.19 | 91 | 1007.1 |
| 20260507031533 | 50 | 317 | 3.5 | 11.3 | 0.02 | 0.19 | 0.19 | 91 | 1006.7 |
| 20260507030007 | 51 | 287 | 4.3 | 9.6 | 0.02 | 0.19 | 0.19 | 89 | 1006.8 |
| 20260507024549 | 52 | 316 | 5.2 | 13.9 | 0.03 | 0.19 | 0.19 | 90 | 1006.4 |
| 20260507023038 | 53 | 322 | 5.2 | 13.0 | 0.02 | 0.18 | 0.18 | 91 | 1006.6 |
| 20260507021519 | 54 | 277 | 4.3 | 11.3 | 0.01 | 0.17 | 0.17 | 91 | 1006.9 |
| 20260507020045 | 55 | 298 | 3.5 | 12.2 | 0.01 | 0.17 | 0.17 | 92 | 1006.2 |
| 20260507014520 | 56 | 292 | 2.6 | 9.6 | 0.00 | 0.16 | 0.16 | 92 | 1005.9 |
| 20260507013053 | 56 | 223 | 2.6 | 12.2 | 0.00 | 0.16 | 0.16 | 93 | 1006.1 |
| 20260507011529 | 56 | 267 | 1.7 | 7.0 | 0.00 | 0.16 | 0.16 | 92 | 1005.6 |
| 20260507010055 | 56 | 189 | 2.6 | 7.0 | 0.00 | 0.16 | 0.16 | 92 | 1005.6 |
| 20260507004523 | 56 | 206 | 0.0 | 9.6 | 0.00 | 0.16 | 0.16 | 92 | 1005.5 |
| 20260507003055 | 56 | 195 | 1.7 | 7.0 | 0.00 | 0.16 | 0.16 | 92 | 1005.3 |
| 20260507001534 | 56 | 197 | 1.7 | 8.7 | 0.00 | 0.16 | 0.16 | 92 | 1005.0 |
| 20260507000004 | 56 | 153 | 2.6 | 7.0 | 0.00 | 0.16 | 0.16 | 92 | 1005.0 |
| 20260506234543 | 57 | 197 | 1.7 | 7.0 | 0.00 | 0.16 | 0.16 | 92 | 1005.0 |
| 20260506233006 | 57 | 234 | 2.6 | 8.7 | 0.00 | 0.16 | 0.16 | 92 | 1004.8 |
| 20260506231537 | 57 | 189 | 0.9 | 7.8 | 0.00 | 0.16 | 0.16 | 92 | 1004.7 |
| 20260506230010 | 57 | 202 | 1.7 | 7.0 | 0.00 | 0.16 | 0.16 | 92 | 1004.6 |
| 20260506224545 | 57 | 206 | 0.9 | 8.7 | 0.00 | 0.16 | 0.16 | 92 | 1004.7 |
| 20260506223016 | 57 | 225 | 2.6 | 8.7 | 0.00 | 0.16 | 0.16 | 92 | 1005.0 |
| 20260506221541 | 57 | 196 | 2.6 | 10.4 | 0.00 | 0.16 | 0.16 | 91 | 1004.9 |
| 20260506220009 | 57 | 207 | 1.7 | 8.7 | 0.01 | 0.16 | 0.16 | 91 | 1005.0 |
| 20260506214547 | 57 | 198 | 3.5 | 8.7 | 0.03 | 0.16 | 0.16 | 91 | 1004.9 |
| 20260506213022 | 57 | 214 | 2.6 | 13.9 | 0.04 | 0.16 | 0.16 | 91 | 1005.0 |
| 20260506211549 | 57 | 273 | 2.6 | 7.8 | 0.06 | 0.16 | 0.16 | 91 | 1004.9 |
| 20260506210023 | 57 | 265 | 1.7 | 7.8 | 0.08 | 0.15 | 0.15 | 91 | 1005.1 |
| 20260506204501 | 58 | 181 | 2.6 | 7.8 | 0.07 | 0.13 | 0.13 | 90 | 1005.2 |
| 20260506203035 | 58 | 163 | 3.5 | 9.6 | 0.08 | 0.12 | 0.12 | 90 | 1005.3 |
| 20260506201612 | 58 | 199 | 1.7 | 7.8 | 0.07 | 0.10 | 0.10 | 90 | 1005.6 |
| 20260506200057 | 59 | 209 | 0.9 | 13.9 | 0.04 | 0.07 | 0.07 | 90 | 1005.6 |
| 20260506194526 | 59 | 182 | 1.7 | 7.0 | 0.04 | 0.06 | 0.06 | 90 | 1005.8 |
| 20260506193016 | 59 | 185 | 0.9 | 5.2 | 0.02 | 0.04 | 0.04 | 89 | 1005.9 |
| 20260506191559 | 59 | 238 | 2.6 | 5.2 | 0.01 | 0.03 | 0.03 | 88 | 1005.9 |
| 20260506190044 | 60 | 153 | 1.7 | 6.1 | 0.02 | 0.03 | 0.03 | 88 | 1005.9 |
| 20260506184531 | 60 | 216 | 1.7 | 12.2 | 0.02 | 0.02 | 0.02 | 88 | 1005.7 |
| 20260506183015 | 60 | 173 | 1.7 | 7.0 | 0.02 | 0.02 | 0.02 | 87 | 1006.0 |
| 20260506181507 | 61 | 211 | 2.6 | 6.1 | 0.02 | 0.02 | 0.02 | 85 | 1006.3 |
| 20260506180053 | 61 | 233 | 0.9 | 4.3 | 0.01 | 0.01 | 0.01 | 85 | 1006.6 |
| 20260506174539 | 62 | 231 | 0.9 | 5.2 | 0.00 | 0.00 | 0.00 | 82 | 1006.9 |
| 20260506173025 | 63 | 212 | 0.9 | 4.3 | 0.00 | 0.00 | 0.00 | 79 | 1007.2 |
| 20260506170038 | 65 | 206 | 3.5 | 10.4 | 0.00 | 0.00 | 0.00 | 70 | 1007.0 |
| 20260506164506 | 66 | 190 | 2.6 | 8.7 | 0.00 | 0.00 | 0.00 | 70 | 1007.1 |
| 20260506163038 | 65 | 211 | 1.7 | 7.8 | 0.00 | 0.00 | 0.00 | 70 | 1007.1 |
| 20260506161509 | 65 | 209 | 2.6 | 9.6 | 0.00 | 0.00 | 0.00 | 70 | 1007.5 |
| 20260506160045 | 65 | 186 | 2.6 | 8.7 | 0.00 | 0.00 | 0.00 | 70 | 1007.6 |
| 20260506154516 | 65 | 211 | 4.3 | 13.9 | 0.00 | 0.00 | 0.00 | 70 | 1007.8 |
| 20260506153047 | 65 | 225 | 2.6 | 8.7 | 0.00 | 0.00 | 0.00 | 70 | 1008.0 |
| 20260506151530 | 65 | 222 | 2.6 | 8.7 | 0.00 | 0.00 | 0.00 | 70 | 1008.1 |
| 20260506150050 | 65 | 204 | 1.7 | 11.3 | 0.00 | 0.00 | 0.00 | 69 | 1008.2 |
| 20260506144512 | 66 | 238 | 2.6 | 11.3 | 0.00 | 0.00 | 0.00 | 68 | 1008.3 |
| 20260506143045 | 66 | 204 | 2.6 | 10.4 | 0.00 | 0.00 | 0.00 | 69 | 1008.1 |